Regional Weather Roundup
Issued by NWS Cleveland, OH

Home | Current Version | Previous Version | Graphics & Text | Print | Product List | Glossary On
Versions: 1 2 3 4 5 6 7 8 9 10 11 12 13 14 15 16 17 18 19 20 21 22 23 24 25 26 27 28 29 30 31 32 33 34 35 36 37 38 39 40 41 42 43 44 45 46 47 48 49 50
000
ASUS41 KCLE 190800
RWRCLE
OHIO REGIONAL WEATHER ROUNDUP
NATIONAL WEATHER SERVICE WILMINGTON, OH
400 AM EDT FRI SEP 19 2014

NOTE: "FAIR" INDICATES FEW OR NO CLOUDS BELOW 12,000 FEET WITH NO
SIGNIFICANT WEATHER AND/OR OBSTRUCTIONS TO VISIBILITY.

OHZ001>008-015>018-024>027-034-035-043-044-190900-
   NORTHWEST OHIO

CITY           SKY/WX    TMP DP  RH WIND       PRES   REMARKS
DEFIANCE       MOCLDY    50  48  93 CALM      30.21F FOG
FINDLAY        CLEAR     53  51  93 NE7       30.20S
TOLEDO EXPRESS CLEAR     49  47  93 CALM      30.21F
TOLEDO METCALF CLEAR     51  47  86 CALM      30.23F
LIMA           CLEAR     51  48  89 NE5       30.20S
$$

OHZ009>014-019>023-028>033-038-089-190900-
   NORTHEAST OHIO

CITY           SKY/WX    TMP DP  RH WIND       PRES   REMARKS
CLE-HOPKINS    PTCLDY    50  47  89 CALM      30.23F
CLE-LAKEFRONT  CLEAR     54  49  83 SE3       30.20F
CUY CO. ARPT   NOT AVBL
LORAIN-ELYRIA  CLEAR     50  46  86 CALM      30.22S
ASHTABULA      CLEAR     45  44  97 E5        30.23S FOG
AKRON-CANTON   CLEAR     47  45  93 NE5       30.21S FOG
WOOSTER        NOT AVBL
MANSFIELD      CLEAR     50  48  93 NE3       30.21S
YOUNGSTOWN     PTCLDY    46  44  93 CALM      30.21F FOG
$$

OHZ042-051>053-060>062-070>072-077>081-190900-
  SOUTHWEST OHIO

CITY           SKY/WX    TMP DP  RH WIND       PRES   REMARKS
CINC-COVINGTON CLEAR     57  47  69 NE8       30.15S
CINC-LUNKEN    FOG       48  47  96 CALM      30.16F VSB 1/4
HAMILTON       CLEAR     48  47  96 CALM      30.17F
DAYTON         NOT AVBL
WRIGHT-PAT AFB NOT AVBL
DAYTON GENERAL CLEAR     51  48  89 E7        30.16F
WILMINGTON     CLEAR     50  47  89 E6        30.17S
$$

OHZ036-037-039>041-045>050-054>059-063>069-073>076-082>088-190900-
  CENTRAL AND SOUTHEAST OHIO

CITY           SKY/WX    TMP DP  RH WIND       PRES   REMARKS
COLUMBUS       CLEAR     56  48  74 NE6       30.17F
OSU AIRPORT    CLEAR     51  47  86 N3        30.18S
BOLTON FIELD   NOT AVBL
RICKENBACK AFB NOT AVBL
NEWARK         CLEAR     50  47  89 N3        30.19S
MARION         CLEAR     47  44  90 N3        30.20S FOG
LANCASTER      CLEAR     47  45  93 N3        30.19R FOG
ZANESVILLE     CLEAR     50  47  89 N5        30.18S
NEW PHILLY     CLEAR     48  46  93 CALM      30.21S FOG
$$



USA.gov is the U.S. government's official web portal to all federal, state and local government web resources and services.